This is the latest recevied weather packets stored in our database for station/object K9JWM. If no packets are shown the sender has not sent any weather packets the latest 10 day(s).
| Time | Temp. | Humidity | Pressure | Rain* | Wind** | Luminosity | Snow |
|---|---|---|---|---|---|---|---|
| 1778028431 | 5° C | 58% | 1010.6 hPa | 0 mm | - | - | - |
| 1778027531 | 5° C | 55% | 1010.5 hPa | 0 mm | - | - | - |
| 1778026631 | 5° C | 55% | 1010.5 hPa | 0 mm | - | - | - |
| 1778025729 | 5.56° C | 53% | 1010.2 hPa | 0 mm | - | - | - |
| 1778024831 | 5.56° C | 53% | 1010.1 hPa | 0 mm | - | - | - |
| 1778023929 | 5.56° C | 57% | 1010 hPa | 0 mm | - | - | - |
| 1778023029 | 5.56° C | 56% | 1009.8 hPa | 0 mm | - | - | - |
| 1778022129 | 5.56° C | 55% | 1009.8 hPa | 0 mm | - | - | - |
| 1778021231 | 5.56° C | 50% | 1009.9 hPa | 0 mm | - | - | - |
| 1778020329 | 5.56° C | 51% | 1009.8 hPa | 0 mm | - | - | - |
| 1778019430 | 6.11° C | 51% | 1009.8 hPa | 0 mm | - | - | - |
| 1778018530 | 6.11° C | 50% | 1009.7 hPa | 0 mm | - | - | - |
| 1778017629 | 6.11° C | 53% | 1009.7 hPa | 0 mm | - | - | - |
| 1778016730 | 5.56° C | 52% | 1009.7 hPa | 0 mm | - | - | - |
| 1778015830 | 5.56° C | 52% | 1009.7 hPa | 0 mm | - | - | - |
| 1778014931 | 5.56° C | 57% | 1009.6 hPa | 0 mm | - | - | - |
| 1778014029 | 5° C | 54% | 1009.6 hPa | 0 mm | - | - | - |
| 1778013131 | 5.56° C | 54% | 1009.5 hPa | 0 mm | - | - | - |
| 1778012229 | 4.44° C | 54% | 1009.6 hPa | 0 mm | - | - | - |
| 1778011329 | 5° C | 53% | 1009.6 hPa | 0 mm | - | - | - |
| 1778010429 | 4.44° C | 56% | 1009.6 hPa | 0 mm | - | - | - |
| 1778009529 | 4.44° C | 57% | 1009.6 hPa | 0 mm | - | - | - |
| 1778008631 | 3.89° C | 54% | 1009.5 hPa | 0 mm | - | - | - |
| 1778007730 | 3.89° C | 57% | 1009.6 hPa | 0 mm | - | - | - |
| 1778006831 | 3.89° C | 55% | 1009.5 hPa | 0 mm | - | - | - |
* Rain latest hour (hover to see other rain measurements)
** Current wind speed in m/s (hover to see current wind gust speed)